This demonstration page uses our WeatherBlox Daily Observations layout. Learn more.

Left ArrowRight Arrow

Hourly Observations for January 26, 2019

Temp ( °F °C ) Dew Point ( °F °C ) Humidity (%) Winds ( mph kmh ) Pressure ( in mb ) Visibility ( mi km ) Precip ( " mm )
12:53 am 00:53 Clear 28 -2.2 22 -5.6 78 78 Calm 30.29 1026 10 16 0.00 0.00
1:53 am 01:53 Clear 28 -2.2 21 -6.1 75 75 Calm 30.29 1026 10 16 0.00 0.00
2:53 am 02:53 Clear 28 -2.2 22 -5.6 78 78 SSE 3 6 30.28 1026 10 16 0.00 0.00
3:53 am 03:53 Clear 27 -2.8 24 -4.4 89 89 Calm 30.27 1025 10 16 0.00 0.00
4:53 am 04:53 Clear 26 -3.3 24 -4.4 92 92 Calm 30.27 1025 10 16 0.00 0.00
5:53 am 05:53 Clear 26 -3.3 24 -4.4 92 92 Calm 30.27 1025 10 16 0.00 0.00
6:53 am 06:53 Clear 26 -3.3 22 -5.6 84 84 Calm 30.29 1026 10 16 0.00 0.00
7:53 am 07:53 Sunny 26 -3.3 24 -4.4 92 92 Calm 30.31 1026 10 16 0.00 0.00
8:53 am 08:53 Sunny 31 -0.6 23 -5 72 72 SSE 3 6 30.31 1026 10 16 0.00 0.00
9:53 am 09:53 Sunny 38 3.3 22 -5.6 52 52 VRB 6 9 30.33 1027 10 16 0.00 0.00
10:53 am 10:53 Sunny 41 5 23 -5 49 49 NW 8 13 30.32 1027 10 16 0.00 0.00
11:53 am 11:53 Sunny 44 6.7 26 -3.3 49 49 NNW 8 13 30.30 1026 10 16 0.00 0.00
12:53 pm 12:53 Sunny 46 7.8 28 -2.2 50 50 W 9 15 30.26 1025 10 16 0.00 0.00
1:53 pm 13:53 Sunny 49 9.4 29 -1.7 46 46 VRB 3 6 30.22 1024 10 16 0.00 0.00
2:53 pm 14:53 Sunny 50 10 30 -1.1 46 46 NW 12 19 30.21 1023 10 16 0.00 0.00
3:53 pm 15:53 Sunny 52 11.1 30 -1.1 43 43 VRB 7 11 30.19 1022 10 16 0.00 0.00
4:53 pm 16:53 Sunny 50 10 29 -1.7 44 44 NW 9 15 30.19 1022 10 16 0.00 0.00
5:53 pm 17:53 Sunny 47 8.3 29 -1.7 50 50 N 3 6 30.19 1022 10 16 0.00 0.00
6:53 pm 18:53 Clear 44 6.7 29 -1.7 55 55 Calm 30.19 1022 10 16 0.00 0.00
7:53 pm 19:53 Clear 39 3.9 31 -0.6 73 73 Calm 30.20 1023 10 16 0.00 0.00
8:53 pm 20:53 Clear 36 2.2 31 -0.6 82 82 Calm 30.22 1024 10 16 0.00 0.00
9:53 pm 21:53 Clear 33 0.6 30 -1.1 89 89 Calm 30.21 1023 10 16 0.00 0.00
10:53 pm 22:53 Clear 33 0.6 30 -1.1 89 89 Calm 30.20 1023 10 16 0.00 0.00
11:53 pm 23:53 Clear 33 0.6 30 -1.1 89 89 Calm 30.21 1023 10 16 0.00 0.00

Powered by AerisWeather